{"data":{"norad_id":61664,"epoch":"2026-05-25T03:39:38.160000Z","epoch_age_seconds":58989,"freshness":"FRESH","line1":"1 61664U 24193D   26145.15252500  .00000646  00000+0  32582-4 0  9999","line2":"2 61664  53.1606  95.8330 0001180  93.6092 266.5044 15.31706209 88235","mean_motion":15.31706209,"eccentricity":0.000118,"inclination_deg":53.1606,"raan_deg":95.833,"arg_perigee_deg":93.6092,"mean_anomaly_deg":266.5044,"bstar":3.2582e-5,"rev_number":8823,"period_min":94.012806864583,"perigee_km":469.91332128084,"apogee_km":471.52965188368,"semimajor_km":6848.8584865823,"source":"CELESTRAK","updated_at":"2026-05-25T13:38:19.412318Z"}}